Le nostre stazioni meteo in Italia

Pubblicità
Il mio iltempo24.it
Kleine Brogel, Belgio (6479): Temperatura & dewpoint: 22.05.2018 09:00:00 - 28.05.2018 09:00:00 (CEST)Kleine Brogel, Belgio (6479): velocità del vento & gusts: 22.05.2018 09:00:00 - 28.05.2018 09:00:00 (CEST)Kleine Brogel, Belgio (6479): direzione del vento: 22.05.2018 09:00:00 - 28.05.2018 09:00:00 (CEST)Kleine Brogel, Belgio (6479): reduced air pressure: 22.05.2018 09:00:00 - 28.05.2018 09:00:00 (CEST)Kleine Brogel, Belgio (6479): visibility: 22.05.2018 09:00:00 - 28.05.2018 09:00:00 (CEST)
Data & Tempo tt [°C] td [°C] ff [km/h] ff [kn] fx [km/h] fx [kn] dd ppp [hPa] vv [km]
28.05.2018 09:00:00 - - - - - - - - -
28.05.2018 08:00:00 - - - - - - - - -
28.05.2018 07:00:00 - - - - - - - - -
28.05.2018 06:00:00 - - - - - - - - -
28.05.2018 05:00:00 - - - - - - - - -
28.05.2018 04:00:00 - - - - - - - - -
28.05.2018 03:00:00 - - - - - - - - -
28.05.2018 02:00:00 - - - - - - - - -
28.05.2018 01:00:00 - - - - - - - - -
28.05.2018 00:00:00 - - - - - - - - -
27.05.2018 23:00:00 - - - - - - - - -
27.05.2018 22:00:00 - - - - - - - - -
27.05.2018 21:00:00 - - - - - - - - -
27.05.2018 20:00:00 - - - - - - - - -
27.05.2018 19:00:00 - - - - - - - - -
27.05.2018 18:00:00 - - - - - - - - -
27.05.2018 17:00:00 - - - - - - - - -
27.05.2018 16:00:00 - - - - - - - - -
27.05.2018 15:00:00 - - - - - - - - -
27.05.2018 14:00:00 - - - - - - - - -
27.05.2018 13:00:00 - - - - - - - - -
27.05.2018 12:00:00 - - - - - - - - -
27.05.2018 11:00:00 - - - - - - - - -
27.05.2018 10:00:00 - - - - - - - - -
27.05.2018 09:00:00 - - - - - - - - -
27.05.2018 08:00:00 - - - - - - - - -
27.05.2018 07:00:00 - - - - - - - - -
27.05.2018 06:00:00 - - - - - - - - -
27.05.2018 05:00:00 - - - - - - - - -
27.05.2018 04:00:00 - - - - - - - - -
27.05.2018 03:00:00 - - - - - - - - -
27.05.2018 02:00:00 - - - - - - - - -
27.05.2018 01:00:00 - - - - - - - - -
27.05.2018 00:00:00 - - - - - - - - -
26.05.2018 23:00:00 - - - - - - - - -
26.05.2018 22:00:00 - - - - - - - - -
26.05.2018 21:00:00 - - - - - - - - -
26.05.2018 20:00:00 - - - - - - - - -
26.05.2018 19:00:00 28,1 13,3 11 6 25 14 E 1018,5 20
26.05.2018 18:00:00 29,1 14,4 14 8 25 14 ENE 1018,5 20
26.05.2018 17:00:00 28,8 13,7 11 6 - - E 1018,7 20
26.05.2018 16:00:00 28,8 13,6 11 6 25 14 ESE 1019,1 20
26.05.2018 15:00:00 28,2 13,7 14 8 25 14 E 1019,6 20
26.05.2018 14:00:00 27,4 15,0 11 6 - - E 1019,7 20
26.05.2018 13:00:00 27,1 15,3 11 6 25 14 E 1019,7 20
26.05.2018 12:00:00 26,4 16,2 14 8 25 14 E 1019,7 20
26.05.2018 11:00:00 25,1 16,7 11 6 - - ENE 1019,8 17
26.05.2018 10:00:00 22,8 16,9 11 6 14 8 ENE 1019,7 17
26.05.2018 09:00:00 21,4 16,3 11 6 14 8 ENE 1019,7 11
26.05.2018 08:00:00 19,3 15,9 4 2 - - N 1019,3 9
26.05.2018 07:00:00 16,7 15,5 4 2 7 4 N 1019,3 3,5
26.05.2018 06:00:00 13,7 13,0 4 2 7 4 N 1019,0 2,4
26.05.2018 05:00:00 14,3 13,7 4 2 - - N 1018,6 1,6
26.05.2018 04:00:00 15,1 14,5 4 2 4 2 N 1018,7 4,3
26.05.2018 03:00:00 15,1 14,1 4 2 4 2 N 1018,8 4,2
26.05.2018 02:00:00 16,5 15,0 4 2 - - N 1019,0 4,5
26.05.2018 01:00:00 17,0 15,2 4 2 4 2 N 1019,0 8
26.05.2018 00:00:00 17,7 15,0 4 2 7 4 N 1018,7 12
25.05.2018 23:00:00 18,7 15,2 4 2 - - N 1018,6 15
25.05.2018 22:00:00 20,2 15,1 4 2 14 8 N 1018,3 19
25.05.2018 21:00:00 22,1 13,8 11 6 14 8 ENE 1017,7 20
25.05.2018 20:00:00 24,2 13,2 4 2 - - N 1017,5 20
25.05.2018 19:00:00 24,2 13,7 4 2 11 6 N 1017,2 20
25.05.2018 18:00:00 25,9 12,1 4 2 11 6 N 1017,3 20
25.05.2018 17:00:00 26,3 11,8 4 2 - - N 1017,7 20
25.05.2018 16:00:00 25,9 13,0 7 4 14 8 SO 1017,8 20
25.05.2018 15:00:00 25,7 13,9 4 2 11 6 N 1017,8 15
25.05.2018 14:00:00 23,9 13,3 7 4 - - N 1018,1 15
25.05.2018 13:00:00 23,8 14,5 4 2 14 8 N 1018,2 15
25.05.2018 12:00:00 22,6 14,2 4 2 14 8 N 1018,2 15
25.05.2018 11:00:00 21,8 16,8 4 2 - - N 1018,5 15
25.05.2018 10:00:00 20,1 16,1 4 2 7 4 N 1018,6 15
25.05.2018 09:00:00 18,1 15,7 4 2 7 4 N 1018,3 8
25.05.2018 08:00:00 16,1 15,0 4 2 - - N 1017,8 8
25.05.2018 07:00:00 14,5 14,1 4 2 7 4 N 1017,7 5
25.05.2018 06:00:00 13,5 13,0 4 2 7 4 N 1017,7 1,0
25.05.2018 05:00:00 13,1 12,7 4 2 - - N 1017,6 2,3
25.05.2018 04:00:00 13,3 12,9 4 2 4 2 N 1017,2 6
25.05.2018 03:00:00 13,3 13,1 4 2 4 2 N 1017,3 0,1
25.05.2018 02:00:00 14,2 13,8 4 2 - - N 1017,6 0,1
25.05.2018 01:00:00 15,6 15,2 4 2 7 4 N 1017,5 2,4
25.05.2018 00:00:00 15,9 15,6 4 2 7 4 N 1017,3 3,2
24.05.2018 23:00:00 15,9 15,5 4 2 - - N 1017,5 7
24.05.2018 22:00:00 15,5 15,2 4 2 29 16 N 1017,1 6
24.05.2018 21:00:00 15,7 13,9 14 8 29 16 S 1017,2 5
24.05.2018 20:00:00 20,8 15,3 7 4 - - ENE 1016,6 20
24.05.2018 19:00:00 21,7 14,4 18 10 29 16 E 1016,2 19
24.05.2018 18:00:00 22,7 14,9 11 6 29 16 ENE 1016,3 20
24.05.2018 17:00:00 22,7 15,2 14 8 - - ENE 1016,1 18
24.05.2018 16:00:00 21,8 14,6 14 8 29 16 ENE 1017,2 15
24.05.2018 15:00:00 22,9 14,9 22 12 32 18 NE 1017,5 20
24.05.2018 14:00:00 24,5 15,0 14 8 - - ENE 1018,0 20
24.05.2018 13:00:00 22,7 13,6 14 8 25 14 ENE 1018,3 20
24.05.2018 12:00:00 20,8 12,8 14 8 29 16 ENE 1019,0 20
24.05.2018 11:00:00 18,7 13,0 18 10 - - ENE 1019,3 20
24.05.2018 10:00:00 19,3 13,0 18 10 29 16 E 1019,5 20
24.05.2018 09:00:00 19,1 13,4 14 8 18 10 NE 1019,3 20
24.05.2018 08:00:00 15,3 10,3 4 2 - - N 1019,6 20
24.05.2018 07:00:00 13,9 9,5 7 4 11 6 NE 1019,8 20
24.05.2018 06:00:00 13,1 8,9 7 4 11 6 N 1019,7 20
24.05.2018 05:00:00 13,6 9,1 7 4 - - ENE 1019,7 20
24.05.2018 04:00:00 - - - - - - - - -
24.05.2018 03:00:00 - - - - - - - - -
24.05.2018 02:00:00 - - - - - - - - -
24.05.2018 01:00:00 - - - - - - - - -
24.05.2018 00:00:00 - - - - - - - - -
23.05.2018 23:00:00 19,1 9,6 11 6 - - NE 1020,0 20
23.05.2018 22:00:00 19,3 11,8 11 6 18 10 NE 1020,0 20
23.05.2018 21:00:00 20,7 12,6 11 6 18 10 NE 1019,3 20
23.05.2018 20:00:00 22,1 12,3 11 6 - - ENE 1019,2 20
23.05.2018 19:00:00 22,5 11,7 11 6 32 18 E 1019,2 20
23.05.2018 18:00:00 23,6 12,9 18 10 25 14 ENE 1018,8 20
23.05.2018 17:00:00 24,0 13,0 18 10 - - ENE 1018,8 20
23.05.2018 16:00:00 24,0 15,8 14 8 25 14 NE 1019,0 11
23.05.2018 15:00:00 22,7 17,2 14 8 25 14 NE 1019,7 9
23.05.2018 14:00:00 20,1 15,8 11 6 - - NE 1020,1 9
23.05.2018 13:00:00 19,1 16,5 7 4 14 8 NE 1020,1 9
23.05.2018 12:00:00 18,3 16,5 7 4 11 6 NNE 1019,8 6
23.05.2018 11:00:00 16,2 14,8 4 2 - - N 1019,7 6
23.05.2018 10:00:00 16,4 14,4 7 4 14 8 NE 1019,6 6
23.05.2018 09:00:00 16,0 14,7 7 4 11 6 NNE 1019,1 4,5
23.05.2018 08:00:00 15,0 14,0 4 2 - - N 1018,5 4,5
23.05.2018 07:00:00 14,3 13,7 4 2 7 4 N 1017,7 4,0
23.05.2018 06:00:00 14,1 13,8 4 2 4 2 N 1017,2 3,5
23.05.2018 05:00:00 14,0 13,6 4 2 - - N 1016,8 3,5
23.05.2018 04:00:00 14,0 13,6 2 1 7 4 - 1016,8 3,2
23.05.2018 03:00:00 14,1 13,6 4 2 7 4 N 1016,7 4,1
23.05.2018 02:00:00 14,4 13,5 4 2 - - N 1016,7 8
23.05.2018 01:00:00 14,6 13,2 4 2 7 4 N 1016,6 15
23.05.2018 00:00:00 14,3 12,9 4 2 11 6 N 1016,0 20
22.05.2018 23:00:00 15,0 12,9 7 4 - - N 1015,7 20
22.05.2018 22:00:00 15,6 13,6 14 8 25 14 NE 1015,8 14
22.05.2018 21:00:00 15,4 14,2 4 2 11 6 N 1014,7 19
22.05.2018 20:00:00 16,2 14,0 4 2 - - N 1014,7 20
22.05.2018 19:00:00 16,6 14,1 7 4 18 10 O 1014,2 20
22.05.2018 18:00:00 17,7 15,8 4 2 7 4 N 1013,8 20
22.05.2018 17:00:00 15,5 14,2 4 2 - - N 1013,5 20
22.05.2018 16:00:00 15,6 13,0 7 4 18 10 SSO 1013,5 12
22.05.2018 15:00:00 18,0 15,1 7 4 18 10 N 1013,1 5
22.05.2018 14:00:00 24,3 13,0 11 6 - - E 1012,6 5
22.05.2018 13:00:00 23,9 13,5 7 4 18 10 NE 1012,6 20
22.05.2018 12:00:00 22,7 14,0 7 4 14 8 NE 1012,7 20
22.05.2018 11:00:00 21,6 12,9 7 4 - - N 1012,7 20
22.05.2018 10:00:00 20,2 12,8 4 2 11 6 N 1013,0 20
22.05.2018 09:00:00 17,9 13,1 7 4 14 8 ENE 1012,8 20

tt = Temperatura
td = dewpoint
ff = velocità del vento
fx = gusts
dd = direzione del vento
ppp = reduced air pressure
vv = visibility

Stazioni seguenti

WeatherPro
AMSI
MeteoEarth